Weather History for KCLL - February, 2012

Change the Weather History Date:

Friday, February 17, 2012

  Actual Average Record
Temperature  
Mean Temperature 57 °F 55 °F  
Max Temperature 60 °F 65 °F 89 °F (1982)
Min Temperature 53 °F 45 °F 16 °F (1936)
Degree Days  
Heating Degree Days 8 11  
Month to date heating degree days 178 205  
Since 1 July heating degree days 1046 1283  
Cooling Degree Days 0 1  
Month to date cooling degree days 8 14  
Year to date cooling degree days 19 25  
Growing Degree Days 6 (Base 50)    
Moisture  
Dew Point 54 °F    
Average Humidity 85    
Maximum Humidity 93    
Minimum Humidity 77    
Precipitation  
Precipitation 0.52 in 0.11 in 3.15 in (1918)
Month to date precipitation 8.14 1.77  
Year to date precipitation 10.92 5.01  
Sea Level Pressure  
Sea Level Pressure 30.02 in    
Wind  
Wind Speed 8 mph (NE)    
Max Wind Speed 14 mph    
Max Gust Speed 17 mph    
Visibility 8 miles    
Events Rain , Thunderstorm    
T = Trace of Precipitation, MM = Missing Value Source: NWS Daily Summary

Daily Weather History Graph

Daily Weather History Graph

Search for Another Location

Airport or City:

Trip Planner

Search our weather history database for the weather conditions in past years. The results will help you decide how hot, cold, wet, or windy it might be!

Date:

Astronomy

Feb. 17, 2012 Rise Set
Actual Time 7:04 AM CST 6:14 PM CST
Civil Twilight 6:40 AM CST 6:39 PM CST
Nautical Twilight 6:11 AM CST 7:07 PM CST
Astronomical Twilight 5:43 AM CST 7:35 PM CST
Moon 3:44 AM CST (2/17) 2:20 PM CST (2/17)
Length of Visible Light 11h 59m
Length of Day
11h 10m
Waning Crescent, 19% of the Moon is Illuminated
Feb 17
Waning Crescent
Feb 21
New
Feb 29
First Quarter
Mar 8
Full
Mar 14
Last Quarter

Hourly Weather History & Observations

Time (CST) Temp. Dew Point Humidity Pressure Visibility Wind Dir Wind Speed Gust Speed Precip Events Conditions
12:37 AM 55.4 °F 48.2 °F 77% 30.14 in 10.0 mi NE 5.8 mph - N/A   Overcast
12:53 AM 55.0 °F 48.9 °F 80% 30.12 in 10.0 mi ENE 6.9 mph - N/A   Overcast
1:23 AM 53.6 °F 48.2 °F 82% 30.11 in 10.0 mi NE 6.9 mph - N/A   Overcast
1:53 AM 54.0 °F 48.9 °F 83% 30.08 in 10.0 mi NE 9.2 mph - N/A   Scattered Clouds
2:53 AM 54.0 °F 48.9 °F 83% 30.06 in 10.0 mi NE 6.9 mph - N/A   Overcast
3:53 AM 54.0 °F 48.9 °F 83% 30.06 in 10.0 mi ENE 6.9 mph - N/A   Overcast
4:53 AM 54.0 °F 50.0 °F 86% 30.08 in 10.0 mi North 8.1 mph - N/A   Overcast
5:53 AM 53.1 °F 48.9 °F 86% 30.07 in 10.0 mi NE 6.9 mph - 0.00 in   Scattered Clouds
6:53 AM 54.0 °F 50.0 °F 86% 30.07 in 6.0 mi NE 10.4 mph - 0.02 in Rain Rain
7:53 AM 55.0 °F 51.1 °F 86% - 10.0 mi NE 8.1 mph - 0.02 in   Overcast
8:53 AM 55.4 °F 51.8 °F 88% - 10.0 mi NE 12.7 mph - N/A   Overcast
9:53 AM 57.9 °F 52.0 °F 81% 30.09 in 10.0 mi East 8.1 mph - N/A   Overcast
10:30 AM 57.2 °F 51.8 °F 82% 30.09 in 10.0 mi East 6.9 mph - N/A   Overcast
10:53 AM 57.9 °F 52.0 °F 81% 30.09 in 10.0 mi ENE 8.1 mph - N/A   Overcast
11:42 AM 59.0 °F 53.6 °F 82% 30.09 in 6.0 mi ENE 5.8 mph - 0.01 in Rain Light Rain
11:53 AM 59.0 °F 54.0 °F 83% 30.08 in 8.0 mi NE 4.6 mph - 0.01 in Rain Light Rain
12:07 PM 59.0 °F 53.6 °F 82% 30.09 in 6.0 mi NNE 4.6 mph - 0.00 in Rain Light Rain
12:40 PM 60.8 °F 55.4 °F 82% 30.06 in 8.0 mi NNE 9.2 mph - 0.01 in   Overcast
12:53 PM 60.1 °F 55.9 °F 86% 30.05 in 10.0 mi NNE 9.2 mph - 0.01 in   Overcast
1:09 PM 60.8 °F 55.4 °F 82% 30.05 in 10.0 mi NNE 9.2 mph - 0.00 in Rain Light Rain
1:19 PM 60.8 °F 55.4 °F 82% 30.04 in 8.0 mi NNE 9.2 mph - 0.00 in Rain Light Rain
1:29 PM 60.8 °F 55.4 °F 82% 30.03 in 9.0 mi NE 9.2 mph - 0.00 in   Overcast
1:53 PM 59.0 °F 55.0 °F 87% 30.01 in 9.0 mi NE 6.9 mph - 0.00 in Rain Light Rain
2:36 PM 59.0 °F 55.4 °F 88% 29.99 in 7.0 mi NE 11.5 mph - 0.01 in Rain Light Rain
2:53 PM 59.0 °F 55.0 °F 87% 29.98 in 8.0 mi NE 8.1 mph - 0.01 in   Overcast
3:53 PM 59.0 °F 55.0 °F 87% 29.98 in 10.0 mi NE 6.9 mph - 0.00 in Rain Light Rain
4:45 PM 57.2 °F 55.4 °F 94% 30.00 in 2.5 mi Calm Calm - 0.09 in Rain Heavy Rain
4:53 PM 57.9 °F 55.0 °F 90% 29.97 in 2.5 mi ENE 8.1 mph - 0.15 in Rain Heavy Rain
5:00 PM 57.2 °F 55.4 °F 94% 29.97 in 2.0 mi East 8.1 mph - 0.04 in Rain Heavy Rain
5:16 PM 57.2 °F 55.4 °F 94% 29.98 in 4.0 mi ENE 5.8 mph - 0.08 in Rain Light Rain
5:32 PM 57.2 °F 55.4 °F 94% 29.99 in 6.0 mi Calm Calm - 0.09 in Rain Light Rain
5:53 PM 57.9 °F 55.9 °F 93% 29.99 in 7.0 mi Variable 3.5 mph - 0.09 in Rain Light Rain
6:53 PM 57.9 °F 55.9 °F 93% 29.97 in 9.0 mi ENE 6.9 mph - 0.01 in Rain Light Rain
7:53 PM 57.9 °F 55.9 °F 93% 29.97 in 9.0 mi NE 8.1 mph - 0.00 in   Overcast
8:38 PM 57.2 °F 55.4 °F 94% 29.97 in 5.0 mi ENE 8.1 mph - 0.02 in Rain Light Rain
8:53 PM 57.2 °F 55.4 °F 94% 29.98 in 6.0 mi East 8.1 mph - N/A Rain Rain
9:16 PM 57.2 °F 55.4 °F 94% 29.97 in 7.0 mi ENE 9.2 mph - 0.07 in Rain Light Rain
9:25 PM 57.2 °F 55.4 °F 94% 29.96 in 8.0 mi ENE 8.1 mph - 0.07 in Rain Light Rain
9:53 PM 57.9 °F 55.9 °F 93% 29.94 in 8.0 mi East 10.4 mph - 0.08 in Rain Light Rain
10:09 PM 57.2 °F 55.4 °F 94% 29.93 in 8.0 mi ENE 10.4 mph - 0.00 in Rain Light Rain
10:26 PM 57.2 °F 57.2 °F 100% 29.95 in 8.0 mi Variable 5.8 mph - 0.01 in Rain , Thunderstorm Light Thunderstorms and Rain
10:53 PM 59.0 °F 57.0 °F 93% 29.93 in 4.0 mi East 10.4 mph - 0.07 in Rain , Thunderstorm Rain
11:03 PM 59.0 °F 57.2 °F 94% 29.93 in 7.0 mi East 10.4 mph - 0.01 in Rain Light Rain
11:53 PM 59.0 °F 57.0 °F 93% 29.89 in 9.0 mi ENE 9.2 mph - 0.01 in   Overcast